weather.gov     
National Weather Service

Regional Weather Roundup
NWS Homepage
This page is being discontinued on March 12, 2014.
The same data is available at this site. Please update your bookmarks.
Thank you, and we apologize for the inconvenience.
Please send an email to SR-SRH.Webmaster@noaa.gov with any concerns.


Current Version
Previous Version:    01  02  03  04  05  06  07  08  09  10  11  12  13  14  15  16  17  18  19  20  21  22  23  24  25  26  27  28  29  30  
   31  32  33  34  35  36  37  38  39  40  41  42  43  44  45  46  47  48  49  50  51  52  53  54  55  56  57  58  59  60  
[Printable]
494
ASUS44 KFWD 250115
RWRTX
NORTH TEXAS HOURLY WEATHER ROUNDUP
NATIONAL WEATHER SERVICE FORT WORTH TX
700 PM CST MON NOV 24 2014

NOTE: "FAIR" INDICATES FEW OR NO CLOUDS BELOW 12,000 FEET WITH NO
SIGNIFICANT WEATHER AND/OR OBSTRUCTIONS TO VISIBILITY.

TXZ118-119-250200-
DALLAS/FORT WORTH METROPLEX

CITY           SKY/WX    TMP DP  RH WIND       PRES   REMARKS
DFW AIRPORT    PTCLDY    55  21  26 W8        30.08R
DALLAS LOVE    CLEAR     52  29  41 CALM      30.09R
FTW MEACHAM    PTCLDY    52  26  36 CALM      30.09R
DAL-EXECUTIVE  PTCLDY    48  26  42 SW5       30.08R
FTW-ALLIANCE   PTCLDY    44  28  53 W6        30.09R
FTW-SPINKS     CLEAR     45  30  57 CALM      30.11R
ARLINGTON      PTCLDY    47  29  49 SW5       30.09R
ADDISON        PTCLDY    54  21  28 NW3       30.09R
MESQUITE       CLEAR    N/A N/A N/A SW3       30.08R
LANCASTER      PTCLDY    48  28  44 CALM      30.10R
$$

TXZ091>094-102>105-117-120-121-131>134-250200-
NORTH CENTRAL TEXAS

CITY           SKY/WX    TMP DP  RH WIND       PRES   REMARKS
SHRMAN/DENISON PTCLDY    49  26  40 CALM      30.09R
GAINESVILLE    PTCLDY    46  28  47 W3        30.11R
BOWIE          PTCLDY    42  32  67 CALM      30.09R
BRIDGEPORT     PTCLDY    43  31  61 CALM      30.11R
DECATUR        PTCLDY    51  20  30 NW3       30.09R
DENTON         PTCLDY    50  22  33 NW6       30.08R
MCKINNEY       PTCLDY    50  24  36 NW7       30.08R
GREENVILLE     PTCLDY    43  32  65 CALM      30.08R
ROCKWALL       PTCLDY    50  30  46 S5        30.07R
TERRELL        PTCLDY    49  31  49 CALM      30.09R
WAXAHACHIE     PTCLDY    48  30  49 W5        30.11R
CLEBURNE       PTCLDY    52  25  35 CALM      30.12R
GRANBURY       PTCLDY    46  33  59 CALM      30.11R
$$

TXZ083>090-098>101-113>116-127>130-139>142-154-155-250200-
WESTERN NORTH TEXAS

CITY           SKY/WX    TMP DP  RH WIND       PRES   REMARKS
WICHITA FALLS  MOCLDY    51  23  33 SW6       30.07R
WF-KICKAPOO    PTCLDY    53  22  30 SW6       30.09R
VERNON         MOCLDY    48  27  43 S6        30.09R
ABILENE        CLEAR     47  29  49 SE7       30.09R
ABILENE-DYESS  CLEAR     46  28  50 S5        30.08R
BRECKENRIDGE   CLEAR     52  25  35 E7        30.09R
GRAHAM         CLEAR     46  30  53 E5        30.08R
MINERAL WELLS  CLEAR     50  25  37 CALM      30.08R
STEPHENVILLE   CLEAR     48  26  41 CALM      30.12R
COMANCHE       PTCLDY    48  30  48 SW7       30.10R
BROWNWOOD      MOCLDY    45  34  65 SE3       30.11R
COLEMAN        PTCLDY    48  35  60 S5        30.09R
BRADY          CLEAR     48  21  34 E5        30.09R
$$

TXZ143>147-156>162-174-175-250200-
CENTRAL TEXAS

CITY           SKY/WX    TMP DP  RH WIND       PRES   REMARKS
WACO           PTCLDY    44  34  67 CALM      30.10R
WACO-MCGREGOR  PTCLDY    48  28  46 N3        30.12R
HILLSBORO      PTCLDY    45  29  52 CALM      30.11R
CORSICANA      MOCLDY    50  28  42 CALM      30.11R
MEXIA          PTCLDY    52  29  41 NW3       30.10R
HEARNE         PTCLDY    47  37  68 CALM      30.11R
CAMERON        MOCLDY    53  32  45 CALM      30.11R
TEMPLE         PTCLDY    52  27  37 NE3       30.10R
KILLEEN        PTCLDY    45  30  55 NW6       30.10R
KILLEEN-SKYLRK PTCLDY    48  27  43 CALM      30.09S
FORT HOOD      PTCLDY    49  34  56 CALM      30.10R
GATESVILLE     PTCLDY    46  32  57 CALM      30.13R
HAMILTON       PTCLDY    53  21  29 CALM      30.11R
LAMPASAS       PTCLDY    43  31  61 CALM      30.10R
$$

TXZ095>097-106>112-122>126-135>138-148>153-164>167-250200-
EAST TEXAS

CITY           SKY/WX    TMP DP  RH WIND       PRES   REMARKS
PARIS          CLEAR     48  27  43 CALM      30.08R
SULPHUR SPRNGS PTCLDY    49  29  44 SW5       30.10R
MOUNT PLEASANT PTCLDY    47  29  48 CALM      30.09R
MINEOLA        PTCLDY    45  32  61 CALM      30.09R
TYLER          PTCLDY    48  33  56 W5        30.08R
LONGVIEW       PTCLDY    49  32  52 W6        30.07R
MARSHALL       PTCLDY    46  39  76 CALM      30.09R
ATHENS         PTCLDY    45  32  61 CALM      30.09R
PALESTINE      CLEAR     45  36  71 CALM      30.11R
JACKSONVILLE   PTCLDY    53  29  39 W3        30.10R
HENDERSON      PTCLDY    45  35  68 CALM      30.09R
NACOGDOCHES    MOCLDY    46  37  71 CALM      30.09R
LUFKIN         PTCLDY    51  39  63 CALM      30.08R
$$

SUPPLEMENTAL OBSERVATIONS (CENTRAL)

CITY           SKY/WX    TMP DP  RH WIND       PRES   REMARKS
LAKE TEXOMA      N/A     55  25  30 W9          N/A
CADDO GRASSLND   N/A     43  27  52 S1          N/A
PAT MAYSE LAKE   N/A     54  25  32 W3          N/A
GREENVILLE       N/A     48  25  40 W2          N/A
CEDAR HILL       N/A     48  28  46 S1          N/A
PALESTINE        N/A     45  36  70 CALM        N/A
LAKE LIMESTONE   N/A     52  30  43 NW1         N/A
MCGREGOR         N/A     46  28  49 N1          N/A
TEMPLE           N/A     54  27  35 N3          N/A
$$

SUPPLEMENTAL OBSERVATIONS (WEST)

CITY           SKY/WX    TMP DP  RH WIND       PRES   REMARKS
MILLERS CREEK    N/A     46  25  42 E5          N/A
POSSUM KINGDOM   N/A     50  25  37 E1          N/A
LBJ GRASSLAND    N/A     48  21  34 VRB2        N/A
GRANBURY         N/A     46  30  53 W1          N/A
COMANCHE         N/A     48  25  40 SW7         N/A
HAMBY            N/A     46  28  49 SE3         N/A
IVIE RESERVOIR   N/A     46  25  42 SE5         N/A
COLORADO BEND    N/A     43  30  61 CALM        N/A
$$

SUPPLEMENTAL OBSERVATIONS (EAST)

CITY           SKY/WX    TMP DP  RH WIND       PRES   REMARKS
CLARKSVILLE      N/A     48  25  40 W1          N/A
CADDO LAKE       N/A     39  36  87 CALM        N/A
GILMER           N/A     50  30  46 W3          N/A
HENDERSON        N/A     46  32  57 CALM        N/A
LUFKIN           N/A     46  37  71 MISG        N/A
N SABINE NF      N/A     45  39  81 MISG        N/A
S SABINE NF      N/A     45  39  81 CALM        N/A
$$

SUPPLEMENTAL OBSERVATIONS ARE A COLLECTION OF AUTOMATED INSTRUMENTS
THAT ARE MAINTAINED BY A VARIETY OF FEDERAL AND STATE AGENCIES.
CERTAIN ELEMENTS...SUCH AS HUMIDITY VALUES AND SUSTAINED WIND
SPEEDS...MAY BE APPROXIMATED.





U.S. Dept. of Commerce
NOAA National Weather Service
1325 East West Highway
Silver Spring, MD 20910
E-mail: w-nws.webmaster@noaa.gov
Page last modified: May 16, 2007
NATIONAL WEATHER SERVICE: for Safety, for Work, for Fun - FOR LIFE